When you browse on this site, cookies collect data to enhance your experience and personalize the content and advertising you see.
Visit our Privacy Policy to learn more. By continuing to use the site, you agree to this use of cookies and data.
  • In Hungary
  • List of Countries
  • For 7 days
  • Water Temperature
  • Satellite Maps
  • Weather Map
  • News
  • Weather Widgets
  • user-avatar
    Login

    Hourly Weather Kraśnik

    Today, 21 February, Thursday

    Time Temperature Precipitation Wind Pressure Humidity
    00:00 0°C° 0 mm 4 mps 745 mmHg 85%
    01:00 +1°C° 0 mm 3 mps 745 mmHg 90%
    02:00 0°C° 0 mm 3 mps 745 mmHg 91%
    03:00 0°C° 0 mm 3 mps 745 mmHg 92%
    04:00 0°C° 0 mm 3 mps 745 mmHg 93%
    05:00 +1°C° 0 mm 3 mps 745 mmHg 92%
    06:00 +1°C° 0 mm 3 mps 745 mmHg 92%
    07:00 0°C° 0 mm 4 mps 745 mmHg 91%
    08:00 +1°C° 0.1 mm 4 mps 745 mmHg 90%
    09:00 +1°C° 0.1 mm 4 mps 745 mmHg 88%
    10:00 +3°C° 0.1 mm 4 mps 745 mmHg 86%
    11:00 +3°C° 0.1 mm 5 mps 745 mmHg 83%
    12:00 +5°C° 0.1 mm 5 mps 745 mmHg 80%
    13:00 +5°C° 0.1 mm 5 mps 745 mmHg 76%
    14:00 +5°C° 0.3 mm 5 mps 745 mmHg 77%
    15:00 +5°C° 0.3 mm 4 mps 744 mmHg 78%
    16:00 +5°C° 0.3 mm 4 mps 744 mmHg 79%
    17:00 +5°C° 0.9 mm 4 mps 744 mmHg 82%
    18:00 +4°C° 0.9 mm 4 mps 743 mmHg 85%
    19:00 +4°C° 0.9 mm 4 mps 743 mmHg 88%
    20:00 +4°C° 0.8 mm 4 mps 743 mmHg 89%
    21:00 +4°C° 0.8 mm 4 mps 743 mmHg 90%
    22:00 +3°C° 0.8 mm 4 mps 743 mmHg 90%
    23:00 +3°C° 0.6 mm 3 mps 743 mmHg 92%

    Tomorrow, 22 February, Friday

    Time Temperature Precipitation Wind Pressure Humidity
    00:00 +3°C° 0.6 mm 3 mps 743 mmHg 93%
    01:00 +3°C° 0.6 mm 3 mps 743 mmHg 95%
    02:00 0°C° 0.5 mm 4 mps 743 mmHg 92%
    03:00 -2°C° 0.5 mm 6 mps 743 mmHg 90%
    04:00 -5°C° 0.5 mm 8 mps 743 mmHg 87%
    05:00 -6°C° 0.1 mm 8 mps 745 mmHg 84%
    06:00 -6°C° 0.1 mm 8 mps 746 mmHg 80%
    07:00 -7°C° 0.1 mm 8 mps 747 mmHg 76%
    08:00 -7°C° 0 mm 7 mps 749 mmHg 69%
    09:00 -7°C° 0 mm 7 mps 750 mmHg 62%
    10:00 -7°C° 0 mm 7 mps 751 mmHg 55%
    11:00 -6°C° 0 mm 6 mps 752 mmHg 54%
    12:00 -6°C° 0 mm 6 mps 753 mmHg 53%
    13:00 -5°C° 0 mm 6 mps 754 mmHg 51%
    14:00 -6°C° 0 mm 6 mps 754 mmHg 51%
    15:00 -6°C° 0 mm 6 mps 754 mmHg 50%
    16:00 -6°C° 0 mm 6 mps 755 mmHg 49%
    17:00 -6°C° 0 mm 6 mps 755 mmHg 49%
    18:00 -8°C° 0 mm 6 mps 756 mmHg 50%
    19:00 -8°C° 0 mm 6 mps 756 mmHg 50%
    20:00 -8°C° 0 mm 6 mps 757 mmHg 49%
    21:00 -7°C° 0 mm 5 mps 757 mmHg 47%
    22:00 -7°C° 0 mm 5 mps 757 mmHg 46%
    23:00 -7°C° 0 mm 5 mps 758 mmHg 47%

    Day after tomorrow, 23 February, Saturday

    Time Temperature Precipitation Wind Pressure Humidity
    00:00 -7°C° 0 mm 5 mps 758 mmHg 48%
    01:00 -7°C° 0 mm 4 mps 758 mmHg 49%
    02:00 -8°C° 0 mm 4 mps 758 mmHg 50%
    03:00 -8°C° 0 mm 4 mps 758 mmHg 52%
    04:00 -8°C° 0 mm 4 mps 758 mmHg 54%
    05:00 -8°C° 0 mm 4 mps 758 mmHg 55%
    06:00 -8°C° 0 mm 4 mps 759 mmHg 56%
    07:00 -8°C° 0 mm 3 mps 759 mmHg 57%
    08:00 -8°C° 0 mm 4 mps 759 mmHg 53%
    09:00 -7°C° 0 mm 4 mps 759 mmHg 50%
    10:00 -7°C° 0 mm 4 mps 760 mmHg 46%
    11:00 -5°C° 0 mm 4 mps 760 mmHg 43%
    12:00 -4°C° 0 mm 4 mps 759 mmHg 41%
    13:00 -4°C° 0 mm 4 mps 759 mmHg 38%
    14:00 -4°C° 0 mm 4 mps 759 mmHg 39%
    15:00 -4°C° 0 mm 4 mps 759 mmHg 40%
    16:00 -4°C° 0 mm 4 mps 758 mmHg 42%
    17:00 -5°C° 0 mm 3 mps 759 mmHg 45%
    18:00 -5°C° 0 mm 3 mps 759 mmHg 49%
    19:00 -4°C° 0 mm 2 mps 759 mmHg 52%
    20:00 -4°C° 0 mm 2 mps 759 mmHg 53%
    21:00 -4°C° 0 mm 2 mps 759 mmHg 53%
    22:00 -4°C° 0 mm 2 mps 759 mmHg 54%
    23:00 -2°C° 0 mm 1 mps 758 mmHg 52%

    24 February, Sunday

    Time Temperature Precipitation Wind Pressure Humidity
    00:00 -2°C° 0 mm 1 mps 758 mmHg 50%
    01:00 -2°C° 0 mm 1 mps 758 mmHg 48%
    02:00 -4°C° 0 mm 2 mps 758 mmHg 48%
    03:00 -4°C° 0 mm 2 mps 757 mmHg 47%
    04:00 -4°C° 0 mm 2 mps 757 mmHg 46%
    05:00 -4°C° 0 mm 2 mps 757 mmHg 45%
    06:00 -4°C° 0 mm 2 mps 757 mmHg 44%
    07:00 -1°C° 0 mm 1 mps 757 mmHg 43%
    08:00 -3°C° 0 mm 2 mps 757 mmHg 40%
    09:00 -2°C° 0 mm 2 mps 756 mmHg 36%
    10:00 -1°C° 0 mm 2 mps 756 mmHg 33%
    11:00 +1°C° 0 mm 2 mps 756 mmHg 32%
    12:00 +1°C° 0 mm 3 mps 756 mmHg 31%
    13:00 +2°C° 0 mm 3 mps 755 mmHg 30%
    14:00 +1°C° 0 mm 3 mps 755 mmHg 35%
    15:00 +2°C° 0 mm 2 mps 755 mmHg 39%
    16:00 +2°C° 0 mm 2 mps 754 mmHg 44%
    17:00 +1°C° 0 mm 2 mps 754 mmHg 48%
    18:00 +1°C° 0 mm 2 mps 754 mmHg 52%
    19:00 +1°C° 0 mm 1 mps 754 mmHg 56%
    20:00 +1°C° 0 mm 1 mps 754 mmHg 57%
    21:00 +1°C° 0 mm 1 mps 754 mmHg 59%
    22:00 0°C° 0 mm 1 mps 754 mmHg 61%
    23:00 0°C° 0 mm 1 mps 754 mmHg 62%

    25 February, Monday

    Time Temperature Precipitation Wind Pressure Humidity
    00:00 -1°C° 0 mm 0 mps 755 mmHg 64%
    01:00 -1°C° 0 mm 0 mps 755 mmHg 65%
    02:00 -1°C° 0 mm 0 mps 754 mmHg 66%
    03:00 0°C° 0 mm 1 mps 754 mmHg 67%
    04:00 0°C° 0 mm 1 mps 754 mmHg 68%
    05:00 0°C° 0 mm 1 mps 754 mmHg 69%
    06:00 0°C° 0 mm 1 mps 754 mmHg 70%
    07:00 0°C° 0 mm 1 mps 754 mmHg 71%
    08:00 +1°C° 0 mm 1 mps 755 mmHg 69%
    09:00 +2°C° 0 mm 1 mps 755 mmHg 66%
    10:00 +2°C° 0 mm 2 mps 755 mmHg 64%
    11:00 +3°C° 0 mm 2 mps 755 mmHg 67%
    12:00 +3°C° 0 mm 2 mps 755 mmHg 70%
    13:00 +4°C° 0 mm 2 mps 755 mmHg 74%
    14:00 +3°C° 0 mm 3 mps 755 mmHg 78%
    15:00 +2°C° 0 mm 3 mps 755 mmHg 83%
    16:00 +2°C° 0 mm 3 mps 754 mmHg 87%
    17:00 +1°C° 0 mm 3 mps 754 mmHg 90%
    18:00 +1°C° 0 mm 3 mps 755 mmHg 92%
    19:00 0°C° 0 mm 3 mps 755 mmHg 94%
    20:00 +1°C° 0 mm 2 mps 755 mmHg 94%
    21:00 -1°C° 0 mm 2 mps 755 mmHg 94%
    22:00 -1°C° 0 mm 2 mps 755 mmHg 94%
    23:00 -1°C° 0 mm 2 mps 755 mmHg 95%

    26 February, Tuesday

    Time Temperature Precipitation Wind Pressure Humidity
    00:00 -2°C° 0 mm 2 mps 754 mmHg 95%
    01:00 -2°C° 0 mm 2 mps 754 mmHg 96%
    02:00 -2°C° 0 mm 2 mps 754 mmHg 96%
    03:00 -2°C° 0 mm 2 mps 753 mmHg 95%
    04:00 -3°C° 0 mm 2 mps 753 mmHg 95%
    05:00 -2°C° 0 mm 2 mps 752 mmHg 93%
    06:00 -2°C° 0 mm 2 mps 752 mmHg 90%
    07:00 -2°C° 0 mm 2 mps 751 mmHg 88%
    08:00 0°C° 0 mm 3 mps 751 mmHg 81%
    09:00 0°C° 0 mm 4 mps 750 mmHg 73%
    10:00 +3°C° 0 mm 4 mps 750 mmHg 66%
    11:00 +3°C° 0 mm 5 mps 749 mmHg 66%
    12:00 +5°C° 0 mm 5 mps 749 mmHg 66%
    13:00 +5°C° 0 mm 6 mps 748 mmHg 66%
    14:00 +5°C° 0 mm 6 mps 747 mmHg 69%
    15:00 +5°C° 0 mm 6 mps 747 mmHg 71%
    16:00 +5°C° 0 mm 5 mps 746 mmHg 73%
    17:00 +3°C° 0 mm 5 mps 746 mmHg 77%
    18:00 +2°C° 0 mm 5 mps 746 mmHg 81%
    19:00 +2°C° 0 mm 5 mps 746 mmHg 85%
    20:00 +1°C° 0 mm 5 mps 746 mmHg 87%
    21:00 +1°C° 0 mm 5 mps 746 mmHg 89%
    22:00 0°C° 0 mm 5 mps 746 mmHg 91%
    23:00 0°C° 0 mm 5 mps 746 mmHg 91%
    Show more